DW5560 Weather Reports


time (UTC)temp
C
wind
direction
speed
KPH
gust
KPH
rain 1hr
cm
rain 24hr
cm
rain mn
cm
humidity
%
barometer
mb
20260507212017 17 153 9.7 14.5 0.00 0.00 0.00 46 1019.5
20260507211056 17 164 12.9 16.1 0.00 0.00 0.00 44 1019.4
20260507210028 17 171 12.9 16.1 0.00 0.00 0.00 45 1019.5
20260507205019 17 165 9.7 16.1 0.00 0.00 0.00 48 1019.5
20260507204031 17 177 9.7 12.9 0.00 0.00 0.00 51 1019.6
20260507203048 17 179 8.0 12.9 0.00 0.00 0.00 52 1019.5
20260507202019 17 205 8.0 12.9 0.00 0.00 0.00 53 1019.4
20260507201032 17 176 9.7 12.9 0.00 0.00 0.00 53 1019.4
20260507200023 17 169 8.0 16.1 0.00 0.00 0.00 52 1019.5
20260507195018 17 184 8.0 14.5 0.00 0.00 0.00 51 1019.7
20260507194030 17 156 6.4 12.9 0.00 0.00 0.00 53 1019.6
20260507193021 17 203 9.7 14.5 0.00 0.00 0.00 53 1019.7
20260507192034 17 198 9.7 14.5 0.00 0.00 0.00 54 1019.5
20260507191031 17 185 6.4 14.5 0.00 0.00 0.00 53 1019.7
20260507190024 17 192 9.7 12.9 0.00 0.00 0.00 52 1019.4
20260507185018 17 171 8.0 11.3 0.00 0.00 0.00 50 1019.3
20260507184028 17 175 9.7 12.9 0.00 0.00 0.00 51 1019.2
20260507183023 17 169 11.3 12.9 0.00 0.00 0.00 53 1019.1
20260507182036 18 159 8.0 16.1 0.00 0.00 0.00 47 1019.1
20260507181029 18 154 8.0 12.9 0.00 0.00 0.00 47 1019.2
20260507180023 18 183 4.8 8.0 0.00 0.00 0.00 50 1019.1
20260507175036 18 180 4.8 8.0 0.00 0.00 0.00 47 1019.2
20260507174029 18 176 4.8 11.3 0.00 0.00 0.00 50 1019.2
20260507173043 18 165 6.4 9.7 0.00 0.00 0.00 49 1018.9
20260507172035 18 157 6.4 9.7 0.00 0.00 0.00 56 1018.8
20260507171033 19 351 3.2 4.8 0.00 0.00 0.00 60 1018.9
20260507170026 20 351 1.6 4.8 0.00 0.00 0.00 57 1018.9
20260507165017 20 351 1.6 3.2 0.00 0.00 0.00 56 1018.9
20260507164028 20 351 0.0 3.2 0.00 0.00 0.00 58 1018.9
20260507163024 20 351 0.0 1.6 0.00 0.00 0.00 58 1018.9
20260507162018 20 351 0.0 1.6 0.00 0.00 0.00 58 1018.9
20260507161051 20 351 1.6 3.2 0.00 0.00 0.00 57 1019.1
20260507160023 20 351 3.2 4.8 0.00 0.00 0.00 57 1018.8
20260507155039 20 351 3.2 4.8 0.00 0.00 0.00 54 1018.6
20260507154031 21 351 3.2 6.4 0.00 0.00 0.00 50 1018.4
20260507153023 21 351 3.2 6.4 0.00 0.00 0.00 47 1018.4
20260507152034 21 340 3.2 9.7 0.00 0.00 0.00 45 1018.4
20260507151030 21 331 4.8 8.0 0.00 0.00 0.00 44 1018.5
20260507150023 21 333 3.2 8.0 0.00 0.00 0.00 46 1018.4
20260507145033 21 355 4.8 8.0 0.00 0.00 0.00 43 1018.4
20260507144027 21 338 6.4 12.9 0.00 0.00 0.00 45 1018.7
20260507143024 21 5 8.0 12.9 0.00 0.00 0.00 43 1018.6
20260507142017 22 348 8.0 16.1 0.00 0.00 0.00 40 1018.7
20260507141030 22 332 9.7 17.7 0.00 0.00 0.00 42 1018.8
20260507140022 22 331 11.3 19.3 0.00 0.00 0.00 42 1018.7
20260507135020 22 5 8.0 17.7 0.00 0.00 0.00 43 1018.7
20260507134033 22 348 11.3 17.7 0.00 0.00 0.00 45 1018.6
20260507133026 22 344 16.1 24.1 0.00 0.00 0.00 47 1018.7
20260507132039 23 27 17.7 24.1 0.00 0.00 0.00 46 1018.4
20260507131035 24 319 8.0 17.7 0.00 0.00 0.00 40 1018.6
20260507130027 24 250 4.8 19.3 0.00 0.00 0.00 33 1018.5
20260507125040 24 148 9.7 32.2 0.00 0.00 0.00 30 1018.6
20260507124052 24 123 19.3 32.2 0.00 0.00 0.00 31 1018.7
20260507123026 25 150 12.9 27.4 0.00 0.00 0.00 30 1018.7
20260507122019 24 152 20.9 30.6 0.00 0.00 0.00 30 1018.9
20260507121032 25 148 14.5 29.0 0.00 0.00 0.00 30 1018.9
20260507120025 25 213 11.3 24.1 0.00 0.00 0.00 29 1019.1
20260507115042 25 157 16.1 27.4 0.00 0.00 0.00 30 1019.2
20260507114035 24 81 3.2 16.1 0.00 0.00 0.00 41 1019.1
20260507113027 24 321 6.4 14.5 0.00 0.00 0.00 41 1019.0
20260507112020 23 67 6.4 17.7 0.00 0.00 0.00 44 1019.0
20260507111017 23 348 8.0 16.1 0.00 0.00 0.00 43 1018.9
20260507110028 22 17 11.3 17.7 0.00 0.00 0.00 45 1019.0
20260507105020 23 5 4.8 19.3 0.00 0.00 0.00 46 1019.0
20260507104054 22 360 12.9 19.3 0.00 0.00 0.00 46 1019.0
20260507103030 23 349 8.0 16.1 0.00 0.00 0.00 46 1018.9
20260507102042 22 32 11.3 17.7 0.00 0.00 0.00 46 1018.9
20260507101036 23 351 12.9 17.7 0.00 0.00 0.00 45 1019.0
20260507100030 23 348 9.7 16.1 0.00 0.00 0.00 45 1019.1
20260507095048 23 360 9.7 16.1 0.00 0.00 0.00 44 1019.3
20260507094018 23 5 9.7 14.5 0.00 0.00 0.00 44 1019.2
20260507093030 23 313 8.0 14.5 0.00 0.00 0.00 43 1019.2
20260507092022 23 360 8.0 12.9 0.00 0.00 0.00 43 1019.3
20260507091019 23 29 4.8 14.5 0.00 0.00 0.00 41 1019.4
20260507090031 22 37 8.0 12.9 0.00 0.00 0.00 41 1019.6
20260507085044 23 13 6.4 14.5 0.00 0.00 0.00 39 1019.5
20260507084036 22 323 6.4 16.1 0.00 0.00 0.00 42 1019.4
20260507083048 22 332 9.7 16.1 0.00 0.00 0.00 40 1019.4
20260507082024 22 349 8.0 16.1 0.00 0.00 0.00 40 1019.3
20260507081017 22 13 6.4 16.1 0.00 0.00 0.00 40 1019.2
20260507080029 22 30 6.4 16.1 0.00 0.00 0.00 41 1019.2
20260507075019 22 346 8.0 14.5 0.00 0.00 0.00 40 1019.3
20260507074016 22 44 8.0 16.1 0.00 0.00 0.00 42 1019.2
20260507073031 22 319 3.2 9.7 0.00 0.00 0.00 42 1019.1
20260507072033 22 32 4.8 11.3 0.00 0.00 0.00 43 1019.1
20260507071027 22 55 4.8 8.0 0.00 0.00 0.00 43 1019.0
20260507070023 22 355 1.6 4.8 0.00 0.00 0.00 43 1018.9
20260507065034 21 82 0.0 4.8 0.00 0.00 0.00 43 1018.9
20260507064027 21 55 1.6 4.8 0.00 0.00 0.00 42 1018.9
20260507063038 21 107 3.2 6.4 0.00 0.00 0.00 37 1018.8
20260507062033 21 62 3.2 6.4 0.00 0.00 0.00 44 1018.8
20260507061024 20 41 1.6 3.2 0.00 0.00 0.00 41 1018.7
20260507060018 20 108 1.6 4.8 0.00 0.00 0.00 41 1018.6
20260507055030 20 111 0.0 4.8 0.00 0.00 0.00 42 1018.5
20260507054028 19 111 1.6 4.8 0.00 0.00 0.00 43 1018.4
20260507053021 20 143 0.0 3.2 0.00 0.00 0.00 45 1018.4
20260507052035 19 143 0.0 3.2 0.00 0.00 0.00 41 1018.5
20260507051032 18 143 0.0 3.2 0.00 0.00 0.00 45 1018.4
20260507050023 18 143 1.6 4.8 0.00 0.00 0.00 49 1018.1
20260507045035 17 188 1.6 6.4 0.00 0.00 0.00 48 1018.0
20260507044027 17 211 6.4 8.0 0.00 0.00 0.00 44 1018.0
20260507043022 16 205 4.8 6.4 0.00 0.00 0.00 48 1017.9
20260507042035 16 173 3.2 6.4 0.00 0.00 0.00 49 1018.0
20260507041047 16 182 6.4 8.0 0.00 0.00 0.00 46 1018.0
20260507040019 16 208 3.2 8.0 0.00 0.00 0.00 46 1017.8
20260507035016 16 207 4.8 9.7 0.00 0.00 0.00 45 1017.8
20260507034026 16 213 6.4 9.7 0.00 0.00 0.00 45 1017.9
20260507033019 16 211 6.4 8.0 0.00 0.00 0.00 45 1017.8
20260507032030 16 201 6.4 9.7 0.00 0.00 0.00 46 1017.7
20260507031026 16 212 4.8 11.3 0.00 0.00 0.00 46 1017.6
20260507030019 16 216 6.4 9.7 0.00 0.00 0.00 46 1017.6
20260507025031 16 215 6.4 9.7 0.00 0.00 0.00 47 1017.6
20260507024024 16 203 6.4 9.7 0.00 0.00 0.00 48 1017.6
20260507023021 15 197 6.4 8.0 0.00 0.00 0.00 49 1017.5
20260507022034 16 208 3.2 4.8 0.00 0.00 0.00 50 1017.4
20260507021025 16 208 3.2 8.0 0.00 0.00 0.00 48 1017.3
20260507020038 16 187 4.8 11.3 0.00 0.00 0.00 49 1017.4
20260507015015 16 196 9.7 14.5 0.00 0.00 0.00 51 1017.3
20260507014028 16 207 9.7 11.3 0.00 0.00 0.00 49 1017.2
20260507013022 16 195 8.0 11.3 0.00 0.00 0.00 49 1017.3
20260507012035 16 200 8.0 12.9 0.00 0.00 0.00 50 1017.3
20260507011033 16 194 8.0 14.5 0.00 0.00 0.00 49 1017.4
20260507010024 16 215 9.7 12.9 0.00 0.00 0.00 48 1017.6
20260507005036 16 200 8.0 12.9 0.00 0.00 0.00 48 1017.6
20260507004030 16 191 4.8 12.9 0.00 0.00 0.00 46 1017.6
20260507003028 16 196 8.0 11.3 0.00 0.00 0.00 47 1017.7
20260507002021 16 198 9.7 14.5 0.00 0.00 0.00 47 1017.7
20260507001033 16 207 8.0 14.5 0.00 0.00 0.00 47 1017.7
20260507000030 16 186 8.0 16.1 0.00 0.00 0.00 47 1017.7
20260506235023 16 205 9.7 17.7 0.00 0.00 0.00 47 1017.7
20260506234036 16 193 8.0 14.5 0.00 0.00 0.00 47 1017.7
20260506233027 16 199 8.0 12.9 0.00 0.00 0.00 47 1017.6
20260506232022 16 203 6.4 11.3 0.00 0.00 0.00 47 1017.7
20260506231056 17 200 8.0 11.3 0.00 0.00 0.00 47 1017.9
20260506230027 17 202 6.4 9.7 0.00 0.00 0.00 47 1017.9
20260506225020 17 230 4.8 8.0 0.00 0.00 0.00 48 1017.9
20260506224031 17 211 4.8 8.0 0.00 0.00 0.00 49 1018.0
20260506223048 17 213 4.8 6.4 0.00 0.00 0.00 50 1018.0
20260506222018 17 213 0.0 4.8 0.00 0.00 0.00 50 1018.1
20260506221031 17 223 3.2 4.8 0.00 0.00 0.00 50 1018.3
20260506220045 17 206 3.2 6.4 0.00 0.00 0.00 51 1018.1
20260506215021 16 215 3.2 6.4 0.00 0.00 0.00 51 1018.1
20260506214054 17 206 6.4 9.7 0.00 0.00 0.00 51 1018.1
20260506213027 17 219 6.4 8.0 0.00 0.00 0.00 50 1018.2